Flag for Canada Weather past 2 weeks in Yarmouth County, Nova Scotia, Canada

Now
64 °F

Partly sunny.


Feels Like: 64 °F
Forecast: 53 / 66 °F
Wind: 17 mph from East

Location: Yarmouth

Current Time: Oct 2, 2014 at 1:56:07 PM

Latest Report: Oct 2, 2014 at 1:00 PM


Visibility: 15 mi

Pressure: 30.10 "Hg

Humidity: 46%

Dew point: 43 °F

Location of Yarmouth CountyLocation

Historic Weather in Yarmouth County — Graph

°F

Yarmouth County temperature yesterday

Maximum temperature yesterday: 64 °F (at 2:00 PM)
Minimum temperature yesterday: 57 °F (at 11:00 PM)
Average temperature yesterday: 61 °F

Past Weeks' High & Low Weather Summary

 TemperatureHumidityPressure
High73 °F (Sep 21, 1:00 PM)100% (Sep 17, 10:00 PM)30.65 "Hg (Sep 17, 10:00 PM)
Low36 °F (Sep 20, 6:00 AM)41% (Sep 19, 6:00 PM)29.41 "Hg (Sep 22, 4:00 AM)
Average57 °F85%30.12 "Hg
* Reported Sep 17 12:00 Noon — Oct 2 12:00 Noon, Yarmouth County, Weather by CustomWeather, © 2014

Note: Actual official high and low records may vary slightly from our data, if they occured in-between our weather recording intervals... More about our weather records

Advertising

Yarmouth County weather history for previous 24 hours

 ConditionsComfort  
Time TempWeatherWind HumidityBarometerVisibility
12:00 PM
Oct 2
63 °FPartly sunny.13 mph52%30.12 "Hg15 mi
11:00 AM59 °FScattered clouds.13 mph63%30.12 "Hg15 mi
10:00 AM55 °FScattered clouds.15 mph72%30.13 "Hg15 mi
9:00 AM52 °FScattered clouds.15 mph77%30.14 "Hg15 mi
8:00 AM50 °FPassing clouds.14 mph88%30.14 "Hg15 mi
7:00 AM50 °FPassing clouds.12 mph88%30.12 "Hg15 mi
6:00 AM54 °FOvercast.10 mph82%30.13 "Hg15 mi
5:00 AM54 °FOvercast.13 mph88%30.12 "Hg15 mi
4:00 AM55 °FOvercast.12 mph88%30.12 "Hg12 mi
3:00 AM55 °FOvercast.10 mph88%30.12 "Hg12 mi
2:00 AM55 °FOvercast.10 mph88%30.13 "Hg12 mi
1:00 AM57 °FOvercast.10 mph88%30.13 "Hg12 mi
12:00 AM57 °FOvercast.13 mph88%30.11 "Hg10 mi
11:00 PM
Oct 1
57 °FMostly cloudy.12 mph88%30.13 "Hg10 mi
10:00 PM59 °FMostly cloudy.12 mph88%30.13 "Hg10 mi
9:52 PM59 °FMostly cloudy.13 mph88%30.13 "Hg10 mi
9:00 PM61 °FOvercast.7 mph83%30.13 "Hg12 mi
8:00 PM61 °FOvercast.7 mph83%30.12 "Hg12 mi
7:00 PM61 °FOvercast.8 mph88%30.10 "Hg12 mi
6:00 PM63 °FOvercast.14 mph83%30.08 "Hg15 mi
5:00 PM63 °FOvercast.12 mph83%30.06 "Hg15 mi
4:00 PM64 °FOvercast.12 mph78%30.06 "Hg15 mi
3:00 PM63 °FOvercast.14 mph88%30.06 "Hg15 mi
2:00 PM64 °FOvercast.12 mph83%30.07 "Hg15 mi
1:00 PM63 °FOvercast.13 mph88%30.08 "Hg15 mi
Weather by CustomWeather, © 2014

See weather overviewHow to use our weather pages